This is the latest recevied weather packets stored in our database for station/object N6GPM. If no packets are shown the sender has not sent any weather packets the latest 10 day(s).
| Time | Temp. | Humidity | Pressure | Rain* | Wind** | Luminosity | Snow |
|---|---|---|---|---|---|---|---|
| 1788301334 | 30.56° C | 20% | 1018.1 hPa | 0 mm | - | 732 W/m² | - |
| 1788301029 | 30° C | 21% | 1018.4 hPa | 0 mm | - | 748 W/m² | - |
| 1788300725 | 30.56° C | 20% | 1018 hPa | 0 mm | - | 759 W/m² | - |
| 1788300424 | 30.56° C | 21% | 1018.2 hPa | 0 mm | - | 775 W/m² | - |
| 1788300123 | 30° C | 22% | 1018.3 hPa | 0 mm | - | 791 W/m² | - |
| 1788299821 | 30.56° C | 21% | 1018.2 hPa | 0 mm | - | 799 W/m² | - |
| 1788299516 | 30° C | 22% | 1018.2 hPa | 0 mm | - | 809 W/m² | - |
| 1788299214 | 30° C | 21% | 1018.4 hPa | 0 mm | - | 823 W/m² | - |
| 1788298908 | 30° C | 21% | 1018.4 hPa | 0 mm | - | 836 W/m² | - |
| 1788298603 | 30° C | 21% | 1018.6 hPa | 0 mm | - | 857 W/m² | - |
| 1788298298 | 30.56° C | 20% | 1018.3 hPa | 0 mm | - | 873 W/m² | - |
| 1788297997 | 30° C | 23% | 1018.4 hPa | 0 mm | - | 882 W/m² | - |
| 1788297694 | 30° C | 24% | 1018.5 hPa | 0 mm | - | 894 W/m² | - |
| 1788297388 | 29.44° C | 26% | 1018.5 hPa | 0 mm | - | 899 W/m² | - |
| 1788297085 | 30° C | 26% | 1018.8 hPa | 0 mm | - | 914 W/m² | - |
| 1788296781 | 31.11° C | 25% | 1018.6 hPa | 0 mm | - | 922 W/m² | - |
| 1788296476 | 30° C | 26% | 1018.6 hPa | 0 mm | - | 930 W/m² | - |
| 1788296171 | 30° C | 26% | 1018.8 hPa | 0 mm | - | 935 W/m² | - |
| 1788295865 | 29.44° C | 26% | 1018.7 hPa | 0 mm | - | 950 W/m² | - |
| 1788295562 | 29.44° C | 26% | 1018.9 hPa | 0 mm | - | 950 W/m² | - |
| 1788295257 | 29.44° C | 26% | 1018.7 hPa | 0 mm | - | 956 W/m² | - |
| 1788294956 | 29.44° C | 27% | 1018.9 hPa | 0 mm | - | 960 W/m² | - |
| 1788294651 | 29.44° C | 25% | 1018.8 hPa | 0 mm | - | 965 W/m² | - |
| 1788294351 | 29.44° C | 25% | 1018.8 hPa | 0 mm | - | 972 W/m² | - |
| 1788294048 | 28.89° C | 25% | 1019 hPa | 0 mm | - | 973 W/m² | - |
* Rain latest hour (hover to see other rain measurements)
** Current wind speed in m/s (hover to see current wind gust speed)